Theta_e
302 303 305 306 308 310 311 312 312 313 315 316 316 317 316 316 315 314 314 314 314 313 313 313 314 312 310 315 315 316 316 313 315 315 317 318 320 322 322 327 327 324 322 321 318 313 312 309 306 304 303 301 299 297 297 297 296 294 293 292 291 290 289 290 289 288 286 284 284 284 285 286 288 287 286 287 286 286 286 286 286 286 285 285 285
302 301 303 304 304 306 308 311 310 312 313 314 315 316 315 313 314 315 312 313 314 314 313 314 315 316 316 315 312 315 314 314 315 314 314 314 316 319 319 321 326 325 321 321 317 315 311 308 306 304 303 302 301 299 297 297 295 294 293 291 292 290 289 289 289 287 285 283 282 282 283 284 287 286 286 286 286 286 286 286 286 285 285 284 285
299 299 302 304 304 306 308 309 311 313 313 313 313 312 311 311 312 312 312 313 313 313 313 313 310 309 311 308 312 306 307 310 311 309 310 312 313 315 318 319 323 324 322 319 317 315 312 309 306 305 304 302 299 297 297 296 295 294 293 291 290 290 289 290 288 287 283 283 283 282 279 280 285 283 285 285 286 285 285 286 286 284 284 284 285
299 300 302 303 304 306 306 307 309 309 309 309 310 311 312 310 310 310 311 312 311 310 310 307 308 306 306 307 306 304 302 303 306 305 307 310 313 316 317 318 319 322 322 319 318 315 312 309 308 305 304 302 301 297 296 295 295 294 293 292 290 287 287 287 288 287 286 284 281 281 280 280 277 279 280 284 285 285 285 285 285 285 285 285 284
299 299 301 302 303 305 306 306 306 308 309 310 310 311 313 311 311 311 311 311 310 308 309 308 308 306 302 302 302 302 302 303 305 306 309 310 312 313 316 316 317 318 321 319 317 315 313 310 308 306 305 303 300 298 297 296 295 294 293 291 290 288 287 287 287 288 286 287 285 281 279 280 278 279 281 281 283 284 285 285 286 285 285 285 284
300 302 303 304 305 303 302 303 305 307 308 309 309 311 311 310 310 310 309 309 309 308 309 309 308 307 304 304 304 303 301 301 305 307 305 307 310 311 312 314 315 315 317 318 316 314 312 310 308 306 305 302 301 299 298 296 295 294 293 292 290 290 288 287 286 289 287 287 289 285 284 281 281 280 280 276 282 283 283 284 285 284 284 285 284
300 301 301 302 301 302 302 304 305 306 307 307 307 308 309 309 309 309 309 308 308 308 308 308 307 307 307 307 307 307 307 305 304 304 306 305 307 307 309 310 313 314 314 316 315 313 312 310 308 307 305 304 301 300 298 296 295 294 294 293 292 291 289 287 286 288 288 287 291 291 289 287 284 281 278 278 277 281 282 282 283 284 284 284 284
301 301 302 303 303 304 304 304 305 306 306 306 307 307 307 308 308 308 308 307 307 308 308 308 307 306 306 306 306 306 306 306 306 306 306 305 305 305 305 307 310 312 313 313 314 313 312 310 309 307 305 304 302 300 298 297 296 295 294 293 293 291 290 288 287 289 286 286 291 288 286 284 284 284 283 281 279 278 278 280 282 283 284 284 284
301 301 300 301 302 303 304 304 304 304 305 306 306 307 307 307 307 307 307 307 306 307 307 307 307 307 307 307 306 306 306 304 305 304 305 304 304 303 303 304 306 308 311 311 312 312 309 310 309 307 305 304 301 301 299 298 296 294 294 293 292 292 291 290 290 290 289 288 290 285 283 282 284 282 283 282 279 278 278 279 280 282 283 283 283
300 301 300 300 301 302 302 302 302 304 305 305 305 306 306 306 306 306 306 306 306 306 307 306 306 306 306 306 305 305 306 305 305 303 303 303 303 302 302 301 303 304 306 308 309 310 309 309 308 306 305 304 300 301 299 297 296 295 294 294 294 292 292 292 291 292 291 290 291 286 284 283 283 283 283 281 281 280 279 279 280 280 280 281 281
299 299 298 299 299 300 300 302 302 301 303 304 305 305 305 306 306 305 305 305 305 306 306 305 306 306 306 306 305 305 307 306 304 303 302 302 302 301 300 300 301 302 303 305 307 308 308 308 307 306 306 303 301 301 300 298 297 296 295 295 294 293 292 292 292 292 292 291 290 287 286 287 286 283 283 283 281 279 279 279 280 280 280 279 280
297 297 297 297 298 298 299 300 301 302 302 303 304 304 305 305 305 305 303 304 305 305 304 305 306 306 306 306 306 306 307 306 305 304 302 301 302 300 300 299 299 300 301 302 304 306 307 307 306 306 304 303 302 302 301 299 297 297 296 295 294 294 294 293 292 292 291 290 289 287 287 288 286 286 285 286 284 282 282 280 279 279 279 279 280
297 296 296 297 299 299 299 299 299 301 303 303 304 304 304 304 304 304 303 303 304 304 303 304 304 305 305 305 305 306 307 307 306 305 303 302 301 300 299 298 299 299 299 300 302 304 306 306 305 305 304 303 302 302 301 300 298 297 296 295 295 294 294 294 293 292 291 290 289 287 288 287 285 284 286 286 284 284 283 280 278 279 278 279 279
297 297 296 297 298 298 298 299 300 301 302 303 303 303 304 304 303 304 303 303 303 303 303 303 303 304 304 305 306 306 307 308 307 306 304 303 302 300 299 299 298 300 299 300 302 302 304 306 305 305 305 303 302 302 301 300 299 298 296 295 295 295 295 294 293 292 291 290 288 287 286 286 284 284 284 284 283 283 282 281 279 278 278 278 278
295 296 297 298 298 297 298 299 300 300 302 302 303 303 303 303 303 303 303 302 302 302 302 302 303 303 303 304 305 306 307 308 308 307 304 304 303 301 299 300 299 300 300 301 301 301 303 305 305 305 304 303 302 302 301 300 299 298 297 296 296 296 295 295 292 291 290 287 286 287 286 285 283 284 284 285 285 285 283 281 281 278 276 277 277
296 296 297 297 297 297 297 298 299 300 301 302 302 302 302 303 302 303 303 302 302 301 301 302 302 302 302 303 304 305 306 308 307 305 305 305 304 302 300 300 300 300 300 300 301 302 302 303 303 304 304 303 302 302 301 300 299 298 297 296 295 295 294 292 291 289 288 286 286 284 284 283 283 284 285 285 284 284 283 283 282 281 279 275 276
296 298 298 298 296 297 298 298 298 299 300 302 302 303 303 302 302 302 302 302 302 301 301 301 301 301 302 303 304 304 305 306 307 305 304 304 304 303 301 300 300 300 299 299 300 301 302 303 303 303 304 303 302 302 302 301 299 298 296 295 294 292 292 291 289 288 286 285 284 284 284 283 283 283 282 283 282 282 283 283 283 282 281 278 276
299 299 298 298 299 299 299 299 299 300 301 301 302 302 303 303 302 302 302 302 302 301 300 300 300 300 301 302 303 304 305 306 306 305 303 303 303 302 302 300 299 299 299 298 298 299 300 299 301 301 302 302 302 301 300 299 298 296 295 295 294 291 291 289 288 287 285 284 284 283 283 283 282 282 282 281 281 282 282 282 281 281 281 280 278
296 298 298 298 298 299 299 299 299 299 300 301 302 302 302 302 302 302 302 302 302 302 300 300 300 301 301 301 302 303 305 305 305 304 302 302 302 301 301 301 300 299 298 297 296 296 298 297 298 298 296 296 297 298 297 296 296 294 293 293 291 290 289 288 287 286 285 284 283 283 282 282 281 281 281 281 280 280 281 280 279 279 280 280 279
297 298 298 299 299 299 299 299 298 299 299 300 301 301 301 302 301 301 301 300 300 300 300 299 299 299 300 300 301 303 303 304 304 303 302 302 302 301 300 300 299 298 298 297 296 295 295 296 296 296 296 295 295 294 294 295 294 294 292 291 290 290 289 287 285 285 285 284 283 282 282 282 281 281 281 280 280 280 280 280 279 279 278 278 279
296 298 298 298 298 297 297 297 298 296 297 299 300 301 302 301 301 301 301 300 300 301 300 300 299 299 298 299 300 301 302 304 303 302 301 301 302 300 300 300 298 297 296 295 295 295 295 295 296 296 296 295 295 293 293 293 293 292 291 291 289 289 289 287 285 284 284 283 283 283 282 281 282 281 280 280 280 280 279 279 278 278 278 278 279
297 298 297 297 296 295 294 293 293 293 296 297 300 300 300 301 301 300 300 300 300 300 300 300 298 299 298 299 299 300 302 303 302 302 301 301 301 300 300 298 297 296 295 295 294 294 294 295 295 295 295 295 295 294 293 293 292 291 290 290 289 289 289 287 285 284 283 283 283 282 281 281 281 281 280 279 280 279 280 279 278 278 278 278 277
297 296 295 295 294 294 294 294 294 296 297 296 297 300 301 300 300 300 299 300 300 301 300 299 298 298 298 298 298 298 299 300 300 301 300 300 299 299 298 297 296 294 293 294 294 293 294 294 294 294 294 294 294 293 292 292 292 291 290 289 289 289 288 286 285 284 283 282 282 282 281 280 281 280 279 279 279 279 280 279 278 278 278 278 277
296 293 293 292 290 291 291 292 294 295 295 296 298 299 300 299 300 299 299 300 299 300 299 298 297 296 296 296 296 296 295 297 298 300 299 299 298 298 296 297 295 293 292 292 293 293 293 293 293 293 293 293 292 292 291 292 292 291 290 289 289 289 288 287 286 284 282 282 282 281 280 280 280 279 279 279 279 279 279 279 278 278 278 277 277
294 293 293 292 290 291 294 294 295 295 295 295 297 298 298 299 298 299 300 299 299 298 298 298 295 294 292 293 293 294 295 295 297 298 298 298 297 297 296 296 295 292 292 291 291 292 292 292 292 292 291 291 291 291 290 290 291 291 290 289 288 288 288 287 286 284 283 282 282 281 281 280 280 279 278 278 278 278 278 278 278 278 277 277 278
294 294 293 295 294 291 291 292 294 294 294 294 295 296 297 298 298 299 299 298 298 297 297 297 295 293 293 292 293 293 294 295 296 297 298 298 297 296 295 295 295 293 291 291 291 290 291 291 291 291 291 291 291 290 290 290 290 290 289 289 288 287 287 286 285 283 282 282 282 281 281 280 280 279 279 278 278 278 278 278 278 278 277 277 277
296 297 297 292 291 293 295 294 294 294 293 294 294 295 296 297 297 297 298 298 297 296 297 297 295 293 293 293 293 293 294 294 294 295 296 297 296 296 295 294 294 294 292 291 290 290 290 290 290 290 290 290 290 289 290 290 289 289 289 288 287 287 286 285 284 282 282 282 282 281 280 280 280 280 279 279 278 278 278 278 278 278 277 277 277
295 296 297 297 298 296 294 294 293 294 293 293 294 295 296 296 297 297 297 297 297 295 295 295 294 294 294 294 293 293 293 293 293 294 294 294 295 295 294 294 293 293 292 291 290 290 289 290 290 290 290 289 289 289 289 289 289 288 288 287 287 286 285 283 282 282 282 281 281 281 281 280 281 280 280 279 279 278 279 278 278 278 277 277 277
296 297 298 297 297 297 296 295 295 292 292 293 293 294 293 295 296 296 296 297 296 294 294 295 294 294 295 295 293 292 292 292 292 292 292 293 293 293 293 293 292 292 292 292 291 290 289 289 289 289 289 289 288 288 288 288 288 287 287 286 286 285 284 283 282 281 281 281 280 280 280 280 281 282 283 282 282 282 279 278 278 278 277 277 277
297 298 298 298 298 296 296 296 294 294 294 294 294 294 294 295 295 295 295 296 293 293 294 294 295 295 296 294 292 291 291 291 291 291 291 292 291 291 291 291 291 292 292 291 290 290 289 289 289 288 288 288 288 288 287 288 288 287 286 286 285 284 283 283 282 280 279 280 280 280 281 282 282 282 283 283 284 284 283 281 279 278 278 278 278
296 296 297 298 298 296 295 295 295 295 295 295 296 295 295 294 294 294 294 295 293 293 294 295 295 296 296 293 291 291 291 291 291 291 291 290 290 290 290 290 290 290 291 290 290 289 289 289 288 288 287 287 287 287 288 290 290 289 286 285 284 284 283 282 281 280 279 279 279 279 280 281 282 282 282 284 285 285 284 284 284 283 282 280 278
297 297 297 296 296 296 297 297 298 298 296 295 295 295 293 294 295 294 295 292 292 293 294 295 296 295 294 293 292 291 290 291 291 291 290 289 289 289 290 290 289 289 289 289 289 289 289 288 288 287 287 287 287 287 289 290 290 290 288 285 284 283 282 282 281 280 280 279 279 279 279 280 280 281 281 282 284 285 285 285 285 285 284 284 284
295 296 296 296 297 298 298 298 297 298 298 295 295 294 294 295 295 295 292 291 292 293 294 295 295 294 294 293 292 291 291 290 290 290 290 289 288 289 289 289 289 289 289 288 288 288 288 288 287 286 286 286 286 288 289 289 290 290 289 286 284 284 282 282 281 280 280 279 279 279 279 279 280 282 282 281 282 283 285 285 284 284 284 285 285
296 296 296 297 298 298 298 297 297 296 294 296 293 294 297 296 295 291 292 292 292 293 293 294 294 294 294 293 291 290 290 290 290 289 289 288 288 288 289 289 289 288 288 288 288 287 287 287 287 286 286 286 285 286 289 289 289 290 290 288 284 283 282 282 281 281 280 279 279 279 278 279 279 281 281 281 281 282 283 283 283 282 281 283 285
298 297 297 297 297 296 296 295 294 294 294 293 293 293 294 293 292 291 291 292 292 293 292 293 293 294 293 292 291 290 290 290 289 289 288 288 288 288 288 288 288 288 288 287 287 287 287 287 286 286 286 285 285 287 288 289 289 290 290 288 284 283 282 282 281 280 280 279 279 279 279 279 279 280 280 281 281 282 282 282 282 281 281 281 281
298 296 295 295 294 295 294 295 294 291 293 290 293 292 290 293 290 291 290 291 291 291 292 292 293 293 292 292 291 291 290 289 289 288 288 288 288 288 288 288 288 288 287 287 287 287 287 286 286 286 285 285 285 287 288 289 289 290 290 287 283 282 281 281 280 280 279 279 279 280 280 279 279 280 282 284 283 282 281 281 280 280 280 280 280
294 294 295 294 291 290 291 289 290 291 291 293 292 290 290 290 289 290 290 290 289 290 291 292 292 293 292 292 291 291 290 289 288 288 287 288 288 287 288 287 287 287 287 286 286 286 286 286 286 285 285 285 284 286 288 288 289 290 289 286 283 282 281 280 280 279 279 279 279 279 280 280 279 279 283 285 285 283 280 279 279 279 279 278 279
290 289 289 289 289 289 289 287 289 290 290 290 289 289 289 289 289 288 287 288 288 290 292 292 292 292 292 292 291 290 289 288 287 287 287 288 288 287 287 287 287 287 286 286 286 286 286 286 285 285 285 284 285 285 287 288 289 289 288 285 282 281 280 280 279 279 279 278 279 281 281 279 279 279 285 286 286 282 279 279 279 278 277 277 277
289 289 290 290 290 287 288 287 287 289 290 289 289 289 289 290 289 289 287 288 289 291 291 291 292 293 292 291 290 289 289 288 287 287 287 287 287 287 287 286 286 286 286 286 286 286 285 285 285 285 285 285 285 285 287 288 289 289 288 285 282 281 280 279 279 278 278 278 278 281 281 281 280 281 286 286 286 282 280 279 279 278 278 277 277
289 287 287 287 286 287 290 289 289 290 288 287 287 288 288 289 290 287 287 289 290 291 292 291 291 290 290 289 289 288 288 288 288 287 287 287 287 285 285 285 285 285 286 286 285 285 285 284 285 284 284 284 284 284 285 287 288 289 289 284 282 280 279 279 279 278 278 278 278 279 282 284 284 285 286 287 286 284 281 280 280 279 278 278 278
288 289 288 286 286 286 288 289 289 288 286 286 285 286 288 288 288 287 288 290 291 290 289 289 289 288 288 288 288 288 288 288 288 287 287 286 285 285 284 284 284 284 284 284 284 284 284 284 284 284 284 284 284 283 284 287 288 289 289 284 282 281 280 279 279 279 278 278 278 279 280 284 285 286 287 287 287 286 284 281 280 279 279 279 278
286 287 287 286 286 285 286 287 287 286 285 285 285 286 287 287 287 287 289 290 288 288 288 287 287 287 288 287 287 288 288 288 287 286 285 285 284 285 284 284 284 283 283 283 284 284 284 284 283 283 283 283 283 283 283 285 287 288 289 286 282 281 281 280 279 279 279 278 278 279 279 283 286 287 287 287 287 287 287 283 281 283 283 283 278
289 290 290 288 288 288 288 288 288 285 284 284 283 286 287 287 287 288 289 287 287 287 286 287 287 287 287 287 287 287 287 287 286 286 285 284 283 283 283 283 283 283 283 283 283 283 283 282 281 281 282 282 282 282 284 285 286 288 287 285 284 283 284 282 280 279 279 279 279 279 280 283 286 286 286 287 287 287 287 285 284 284 284 284 281
287 286 287 286 287 288 288 287 287 286 284 283 283 285 286 285 287 288 286 286 285 285 285 285 286 286 286 286 286 286 286 286 285 285 285 284 282 283 282 283 283 283 283 283 283 283 282 281 280 280 280 280 281 282 283 284 285 287 287 286 285 284 285 282 282 280 280 280 280 279 281 284 286 286 286 286 286 286 285 287 286 285 284 284 280
287 288 287 286 287 287 287 286 287 286 285 283 281 284 285 285 287 284 285 285 284 283 283 285 285 284 284 284 283 284 284 284 284 285 284 283 282 282 282 282 283 283 283 283 282 282 282 281 280 279 279 279 280 281 282 284 285 286 286 286 285 285 285 285 282 282 282 281 282 283 284 285 285 285 286 286 286 286 286 287 287 286 284 281 279
286 286 286 285 285 284 284 285 286 286 285 282 281 281 284 286 285 283 283 283 282 282 282 283 283 282 282 281 281 280 281 282 283 284 284 284 283 283 283 283 283 283 283 283 282 281 281 281 280 279 279 279 279 279 281 283 284 285 285 286 285 285 285 285 283 283 283 285 285 285 285 285 285 285 284 284 283 283 285 285 285 284 281 279 278
288 289 286 286 282 284 285 285 285 287 284 283 280 281 283 284 284 283 282 281 281 282 282 281 280 279 277 278 281 280 280 280 281 281 282 283 283 283 283 283 283 283 283 282 282 281 281 280 279 279 278 278 278 279 280 281 283 284 284 285 284 284 285 284 283 283 284 284 285 284 284 284 284 284 284 283 283 282 282 283 281 280 277 278 277
287 287 286 284 284 284 285 285 285 286 284 283 282 282 282 281 280 279 278 278 280 281 281 279 278 276 277 277 279 279 280 280 281 282 282 281 282 283 283 283 283 283 282 282 281 281 280 280 279 279 278 278 277 278 279 280 281 283 283 284 284 283 283 283 283 283 283 283 283 283 284 283 282 282 281 279 279 279 279 278 277 276 277 277 278
288 288 285 286 285 285 285 284 285 285 283 282 281 281 278 277 278 276 276 278 280 279 278 276 276 276 276 278 278 279 280 280 279 279 280 282 282 283 283 284 285 285 284 283 282 282 281 281 281 279 278 277 277 277 278 281 281 283 283 283 283 283 283 283 283 284 282 281 281 281 280 279 279 278 277 277 277 276 276 277 277 277 276 276 276
289 288 286 285 284 284 284 284 285 284 282 282 281 280 276 275 274 274 276 279 279 277 276 275 275 276 276 277 277 277 277 278 279 279 279 279 281 285 285 284 283 284 284 285 285 282 282 282 281 281 280 278 278 279 281 282 283 284 284 284 284 284 285 283 284 285 282 280 280 279 279 278 277 277 277 276 276 276 276 276 277 278 277 277 276
288 287 287 287 286 285 283 283 284 283 282 281 280 278 276 275 274 275 276 278 277 278 277 277 277 276 278 278 278 277 277 276 277 278 278 279 280 282 284 284 284 284 284 284 285 284 284 284 282 281 282 282 282 282 282 283 283 283 284 284 284 284 285 285 285 283 280 279 278 277 277 277 277 277 277 276 276 276 276 276 276 277 278 277 277
Wind_Speed
8 9 9 10 11 10 8 7 8 7 7 8 9 9 11 13 11 12 9 8 9 8 7 8 8 6 4 7 7 6 6 5 6 6 6 6 5 6 5 8 10 11 12 11 11 11 11 11 11 10 10 10 11 13 13 12 11 12 11 9 13 13 8 6 7 10 14 8 7 7 6 4 4 5 5 4 4 3 3 5 5 6 5 6 5
1 3 6 6 6 6 6 7 7 9 9 9 11 11 7 7 11 10 8 8 9 10 9 9 9 10 10 8 5 6 7 7 7 6 6 5 5 5 5 4 11 12 12 12 11 12 10 10 12 13 12 11 10 11 12 12 12 11 11 9 7 12 10 10 10 11 4 9 11 6 5 4 3 4 4 3 4 3 3 5 5 6 6 5 5
4 4 4 7 8 8 8 8 9 11 9 10 8 7 7 7 8 7 8 9 9 9 9 9 5 3 4 3 6 4 1 3 4 4 4 5 4 4 5 5 7 11 12 12 12 12 13 12 11 11 12 11 10 9 11 12 12 15 15 13 10 5 7 8 11 3 8 6 6 9 5 4 1 2 2 3 3 3 3 5 5 5 5 4 5
8 8 7 7 8 9 6 7 8 5 7 6 7 10 8 8 7 8 8 8 7 7 6 4 4 4 4 5 4 4 4 2 3 3 4 4 6 5 5 6 6 8 12 11 10 12 14 13 12 11 11 11 12 13 12 13 12 12 12 12 13 12 8 9 9 4 10 16 7 3 5 5 4 5 3 1 2 3 4 4 4 5 5 4 4
8 5 4 6 7 10 11 8 6 8 8 10 9 10 9 11 11 11 9 9 7 7 7 6 6 5 5 5 5 5 4 3 4 4 6 6 5 7 8 6 6 5 10 12 11 12 11 12 12 12 12 12 12 13 14 15 15 13 13 12 14 15 13 9 10 5 10 2 10 8 3 0 6 4 6 1 1 2 1 3 3 5 5 5 5
8 8 10 11 11 6 4 5 8 7 9 9 9 9 8 8 8 8 7 7 8 8 8 8 8 8 7 7 7 5 6 6 11 11 8 8 9 4 4 7 6 6 6 10 11 11 11 11 12 13 13 12 13 12 11 11 13 14 15 15 13 10 14 12 10 6 10 6 4 1 7 8 9 7 7 4 0 0 3 3 4 4 4 5 5
3 2 5 6 5 5 5 7 9 9 9 6 6 7 7 8 8 9 9 8 8 8 9 9 8 8 10 10 9 10 11 8 4 4 7 5 3 6 6 5 7 8 7 8 10 10 12 12 12 13 13 11 6 9 12 15 14 15 14 13 13 11 10 14 14 10 7 6 4 1 1 2 12 14 6 6 4 2 2 3 3 4 5 5 5
6 7 7 8 8 11 12 11 9 11 7 6 7 7 9 9 8 9 8 8 8 9 10 10 10 9 9 9 9 9 9 8 7 5 5 5 5 6 5 6 6 6 7 7 8 10 11 12 13 12 12 12 12 12 14 13 11 10 13 13 11 11 14 13 13 11 15 10 5 3 2 5 10 3 10 11 8 10 5 2 1 4 5 5 6
7 6 7 8 10 9 7 8 8 6 7 8 8 8 7 7 8 7 9 8 8 10 10 9 9 10 10 9 9 7 6 5 5 6 6 6 7 5 6 6 6 6 6 7 8 10 11 12 12 12 13 13 12 11 11 13 15 15 14 12 12 11 12 10 11 12 10 8 8 2 5 6 3 2 6 5 5 6 3 8 6 1 1 2 5
3 4 6 7 7 8 7 5 5 7 6 6 6 6 7 6 8 8 8 8 8 9 10 10 9 9 9 9 9 7 6 4 6 7 7 7 8 8 7 6 7 6 6 7 8 9 10 11 12 13 13 13 12 13 13 13 13 13 15 15 13 13 10 9 12 11 11 7 7 7 5 5 3 3 3 4 4 3 9 12 9 11 9 5 3
3 2 3 5 4 5 5 7 7 5 5 6 6 7 7 8 8 9 9 8 8 10 10 11 10 9 10 10 10 10 9 7 7 7 7 8 9 8 8 7 6 7 7 7 8 9 10 11 11 12 12 11 11 9 11 13 13 14 13 13 13 14 11 10 8 7 8 8 8 8 9 13 12 8 10 6 6 4 4 5 5 7 6 6 6
4 4 4 4 3 3 4 5 5 6 5 6 6 6 7 8 8 9 7 9 9 9 10 11 10 10 9 9 10 9 9 8 10 9 9 10 9 9 8 7 7 7 7 7 8 8 9 9 10 11 11 11 12 11 10 10 11 11 11 11 11 11 9 9 8 9 9 8 9 7 8 7 3 7 9 9 9 6 8 10 9 4 1 2 1
5 5 5 4 6 6 6 5 5 6 8 7 8 7 7 7 9 10 10 9 10 9 11 10 10 10 10 9 8 7 8 8 8 9 8 9 8 9 10 10 8 8 8 9 9 10 10 10 10 11 10 11 12 11 12 13 11 11 11 11 11 12 11 11 9 11 12 10 10 7 7 7 7 4 8 8 4 6 8 8 3 5 5 4 2
5 5 5 5 6 5 5 6 6 6 6 8 7 8 7 7 8 10 10 10 9 9 10 10 11 10 8 8 8 7 9 9 9 9 9 9 8 9 9 10 10 11 10 11 10 10 10 11 12 12 13 13 14 14 14 13 13 12 12 12 12 11 10 11 11 10 10 9 8 8 7 8 7 5 7 7 8 8 7 11 9 3 2 5 1
4 5 6 7 7 6 7 7 6 6 7 7 7 7 7 8 9 10 9 10 10 11 10 11 10 9 8 8 9 8 10 9 9 9 10 11 9 10 9 8 8 9 9 9 9 10 10 10 11 12 12 11 12 12 10 11 12 11 11 12 10 8 10 11 10 11 11 9 8 9 8 7 6 6 7 7 8 9 10 10 12 10 3 2 3
5 5 6 7 6 5 5 6 7 6 7 7 7 7 8 9 8 10 11 10 11 11 11 12 11 10 10 10 11 10 9 9 9 9 10 11 11 11 10 10 9 8 8 9 10 11 11 10 10 11 11 12 12 12 12 11 11 11 10 10 11 8 10 11 10 10 11 11 10 7 7 7 6 7 7 8 8 8 9 9 10 11 12 4 2
5 7 8 8 5 6 8 7 6 6 7 9 9 9 10 9 9 10 9 8 10 11 11 10 10 10 11 11 11 10 10 11 11 10 10 9 9 10 10 10 8 8 8 9 10 11 11 11 11 11 11 11 12 12 12 11 12 11 11 12 12 9 10 11 9 10 9 9 8 10 9 7 6 5 5 6 6 7 8 9 10 11 8 9 7
8 8 6 6 7 9 8 7 8 9 10 9 9 8 8 9 9 11 10 12 11 10 10 10 10 11 11 12 12 12 10 10 9 10 9 9 9 8 8 8 9 8 8 7 9 10 10 10 10 10 10 10 12 12 11 11 10 9 10 11 10 10 10 8 8 10 10 9 9 7 7 7 5 6 6 6 7 8 8 8 8 6 8 10 7
4 6 7 6 7 8 9 10 9 8 8 8 7 7 7 7 8 9 12 11 10 9 8 8 9 9 9 11 11 11 10 9 8 8 9 10 11 9 9 9 8 8 8 8 8 9 9 9 9 9 7 8 7 10 10 10 11 9 9 9 8 10 10 10 8 9 9 10 10 10 7 7 6 7 6 6 6 7 7 7 6 6 5 7 9
4 5 6 7 7 8 10 10 10 10 9 7 7 6 9 9 9 9 7 6 6 9 9 10 10 9 8 8 9 10 10 9 9 9 10 12 12 11 10 9 10 9 9 9 9 10 10 10 9 9 9 9 8 6 8 10 10 10 10 9 10 11 11 11 9 8 9 9 11 11 9 9 7 7 7 6 6 5 7 7 7 7 5 6 8
6 7 6 6 7 7 7 7 6 5 6 7 8 10 9 8 10 9 9 8 9 10 10 10 9 10 9 11 11 10 11 10 9 10 10 11 10 11 11 10 8 10 9 10 10 11 11 11 12 11 12 11 11 10 8 10 10 10 10 10 10 12 13 10 9 9 8 11 11 11 10 9 9 10 7 7 7 7 6 6 6 7 6 5 7
7 6 5 5 5 5 5 4 3 4 6 8 8 7 7 10 8 6 8 9 10 10 11 9 8 9 11 11 10 9 10 10 11 10 11 10 10 10 10 9 10 10 10 11 12 11 11 12 12 12 12 12 12 12 11 11 12 12 11 9 11 12 11 12 11 12 10 9 11 12 10 9 8 10 9 7 8 8 7 7 6 7 7 7 4
4 4 4 4 5 5 4 5 5 7 8 8 7 9 10 9 8 8 9 12 10 10 8 8 9 10 12 11 10 10 9 11 12 11 11 10 9 9 9 11 11 9 9 10 11 11 12 12 12 12 12 12 13 12 11 12 12 14 14 12 13 14 14 14 13 13 13 11 11 11 12 10 7 9 9 9 8 8 7 8 8 6 7 6 4
1 2 2 3 4 2 3 4 5 7 9 10 8 7 7 7 8 7 12 12 9 8 8 8 9 10 10 10 11 10 10 11 12 11 12 11 9 9 9 10 10 9 11 9 10 11 11 12 13 12 12 12 12 12 12 12 14 15 14 15 14 15 14 14 15 15 13 13 13 12 12 12 11 11 9 8 7 7 8 7 8 6 6 6 5
3 2 3 4 4 4 6 6 7 8 9 8 7 8 7 9 8 10 12 9 9 8 8 8 8 9 8 10 10 10 12 13 13 11 12 11 10 10 9 11 9 9 10 10 10 10 11 12 12 13 12 12 13 13 14 13 12 13 14 15 15 15 15 15 15 15 15 14 14 14 14 12 12 12 10 9 9 10 8 8 8 6 6 5 4
3 5 5 8 7 5 5 7 7 9 9 6 5 7 7 8 10 10 10 9 9 7 9 9 9 10 10 11 11 10 13 14 13 12 13 12 10 10 10 9 10 11 10 10 11 10 11 12 12 12 12 12 12 13 15 15 15 14 14 13 13 14 15 15 14 14 14 14 15 14 14 14 13 14 13 11 10 11 8 8 8 7 6 5 6
5 6 7 5 5 9 10 8 9 9 8 7 7 8 9 9 10 9 10 9 9 9 10 10 10 10 11 13 13 13 12 11 12 11 10 11 12 11 10 11 9 10 11 11 10 11 10 11 12 11 12 12 11 11 12 12 12 13 14 14 14 13 12 11 11 12 13 13 14 14 15 15 15 14 15 14 12 10 9 10 9 9 7 7 7
6 6 8 10 11 8 8 10 9 10 7 6 9 9 9 10 11 10 9 9 9 10 9 10 10 11 13 14 13 11 10 11 9 9 10 10 11 11 11 9 9 12 12 12 13 12 10 10 11 11 12 11 11 10 10 12 12 12 12 13 14 13 13 11 10 11 13 14 14 15 16 16 16 15 15 14 14 12 9 9 7 7 8 8 7
7 10 10 8 9 10 10 9 9 6 7 10 9 9 9 9 9 9 8 11 10 8 9 11 11 12 15 14 10 9 9 9 9 9 10 11 11 10 10 10 11 11 10 12 12 12 12 12 11 12 11 10 11 12 12 12 13 13 12 13 13 13 13 13 13 13 12 12 12 12 14 14 15 16 18 17 15 13 12 10 8 8 9 8 7
10 10 10 9 10 9 10 9 7 7 9 9 9 10 11 11 10 9 9 10 7 9 11 11 12 14 14 10 9 9 10 9 10 12 11 10 10 10 10 11 12 12 11 11 11 11 12 13 13 12 11 11 11 10 14 19 16 14 14 12 12 13 13 13 13 12 11 11 12 11 11 17 17 18 18 19 18 18 17 14 13 11 10 8 8
8 8 10 11 11 9 7 7 9 9 10 10 10 10 8 8 9 10 10 10 7 9 11 11 14 14 12 8 9 10 9 11 12 10 10 10 11 10 11 12 12 11 12 11 10 11 12 12 12 13 13 12 11 11 18 20 21 20 14 14 15 15 14 13 12 13 13 13 11 10 9 13 14 15 16 19 18 18 16 14 12 14 12 13 10
10 11 10 10 10 10 9 10 10 9 8 7 8 9 6 10 11 10 12 5 7 10 12 13 14 11 10 11 11 10 10 12 10 12 11 10 9 11 12 13 12 12 12 9 11 14 12 11 11 11 13 13 12 14 19 21 22 24 21 15 12 12 14 14 14 14 13 13 13 12 10 9 10 13 13 14 16 18 17 15 15 15 13 12 14
8 9 9 10 10 10 9 10 9 10 9 7 7 7 9 11 10 12 4 5 10 10 12 12 12 11 12 11 10 11 12 11 11 11 9 9 11 11 13 13 14 12 9 12 14 12 13 12 12 14 14 13 11 15 19 21 22 22 22 16 13 14 15 15 14 14 14 14 12 12 11 10 10 17 14 12 12 12 14 15 15 16 15 14 13
10 9 9 10 9 9 9 8 8 8 7 8 6 7 11 9 8 5 5 9 9 10 11 12 11 12 13 11 10 10 11 12 10 9 10 11 12 14 13 11 10 10 13 13 12 14 12 13 14 14 13 12 12 15 22 24 25 24 24 20 14 15 15 15 16 15 13 14 15 14 13 12 10 12 11 12 11 11 10 9 9 9 9 12 14
10 10 9 8 8 7 7 7 7 7 7 6 7 7 8 7 6 6 7 8 9 9 9 11 12 13 11 10 10 11 12 11 10 10 11 12 13 12 12 12 11 12 13 13 13 12 12 12 13 12 12 12 12 19 23 24 23 24 24 21 12 12 13 14 14 14 14 15 15 14 15 15 14 13 11 14 13 12 10 9 9 8 9 9 9
8 6 6 6 6 6 6 7 6 6 7 5 7 6 5 9 4 6 7 8 7 8 10 10 13 12 11 10 11 11 12 11 11 10 11 13 13 13 13 10 9 9 9 9 9 11 13 13 12 11 12 13 12 19 22 24 25 24 25 15 10 10 11 12 13 12 11 11 12 13 13 13 13 13 13 16 13 11 11 11 10 8 7 6 8
5 3 5 5 4 5 5 5 6 6 6 8 6 5 6 6 6 7 6 6 5 8 11 13 13 10 10 11 12 12 12 11 10 11 13 13 13 12 10 8 10 10 10 11 11 11 10 10 12 12 13 12 11 16 22 24 25 27 21 13 11 9 8 8 10 11 10 10 10 10 10 11 12 12 15 17 16 13 10 11 9 9 7 6 8
5 5 4 5 5 6 5 4 6 8 6 6 6 6 6 6 6 6 5 6 6 11 13 11 10 11 12 11 11 11 11 11 10 13 14 12 10 8 10 9 11 11 11 11 9 9 9 10 12 13 13 12 11 14 21 22 23 24 19 13 11 11 11 10 7 7 8 8 9 12 11 11 12 12 17 19 19 14 10 10 9 8 8 8 9
3 5 6 7 7 5 6 6 6 8 8 6 8 8 7 8 7 6 5 6 10 12 11 11 12 11 9 8 9 10 11 11 12 13 12 12 12 11 9 8 9 9 10 8 8 8 8 8 9 11 13 13 11 12 18 21 23 23 18 11 10 9 10 10 9 8 7 9 9 10 13 13 14 15 22 21 21 15 10 10 10 8 9 10 10
6 4 4 4 5 6 8 7 7 9 6 6 6 7 7 8 9 5 6 9 12 12 10 8 8 7 7 8 8 10 11 12 13 12 11 11 9 8 9 10 9 9 9 8 8 8 10 9 8 9 10 11 10 9 12 20 20 22 19 12 10 11 11 11 11 12 10 8 9 10 12 14 15 19 21 21 21 18 11 9 8 9 9 12 6
5 7 6 5 4 4 6 8 8 8 6 6 5 5 8 7 7 6 9 12 11 7 7 8 7 7 7 9 9 11 13 12 11 11 10 9 9 10 9 10 10 8 8 8 10 9 9 9 9 9 9 10 10 10 11 19 21 23 22 16 11 13 11 10 9 9 9 10 9 9 9 14 18 19 20 21 20 19 14 9 10 10 12 6 7
5 6 4 5 5 5 6 8 7 6 6 6 5 7 8 7 6 10 13 10 6 7 7 7 7 8 8 9 10 10 11 11 9 8 9 10 8 9 10 10 9 9 11 11 10 9 9 9 8 8 9 9 8 12 9 15 18 19 13 13 9 9 9 11 11 9 8 7 10 10 9 14 19 18 19 18 18 17 17 9 10 13 12 11 7
9 10 8 6 9 9 8 9 8 5 4 5 5 8 9 7 9 14 8 6 6 6 7 7 8 8 9 9 9 10 10 8 8 9 11 10 8 9 9 9 10 9 10 10 10 9 8 8 6 6 6 6 7 8 13 12 18 18 16 15 11 8 10 8 10 10 10 8 6 6 8 15 18 16 16 17 15 16 14 11 14 16 14 14 8
7 5 8 7 8 9 9 8 9 8 5 5 4 7 8 7 13 9 6 6 6 7 6 7 8 9 9 9 9 9 9 8 9 9 9 10 9 9 9 9 10 10 9 9 8 7 7 7 7 6 5 4 4 5 8 11 12 15 16 18 16 15 13 6 5 6 6 6 6 6 7 13 13 13 14 14 14 14 10 14 16 15 14 11 7
8 9 8 6 9 11 11 12 11 8 6 5 4 6 10 12 10 4 6 6 7 6 6 8 8 8 8 7 7 8 8 8 9 10 10 9 8 9 9 8 9 9 9 9 8 8 9 8 8 8 5 4 5 5 6 10 15 14 21 18 17 16 15 12 8 5 7 6 8 11 14 14 12 13 14 14 14 17 18 13 14 15 12 7 7
7 6 6 6 7 7 9 12 14 11 7 5 4 5 9 13 7 6 6 7 6 6 7 8 7 6 6 5 6 5 6 7 8 8 9 9 10 10 9 8 9 9 9 9 8 8 8 8 8 8 8 7 7 7 8 9 12 13 15 19 20 20 18 17 12 9 11 13 14 14 15 15 14 13 11 9 9 10 15 15 14 12 7 7 7
9 10 8 8 6 7 9 10 12 12 6 6 5 5 8 10 10 7 7 6 6 7 7 6 6 5 3 3 5 4 4 5 6 6 7 7 7 8 8 8 9 9 8 8 8 9 9 9 9 9 9 9 9 9 9 10 10 11 11 13 14 14 16 15 10 9 12 11 13 12 9 10 8 14 14 11 9 9 9 9 8 7 7 7 7
6 7 7 7 8 8 10 10 11 11 6 7 7 9 8 8 8 6 5 5 6 6 7 6 5 4 4 4 4 5 6 4 5 7 8 7 7 8 9 9 10 10 9 9 9 10 10 11 10 8 6 6 7 7 8 10 10 11 10 10 11 11 11 10 9 8 8 8 8 8 10 9 8 9 8 6 6 6 7 6 6 6 6 6 6
12 10 7 9 9 11 11 11 13 9 6 8 8 8 7 7 6 5 4 5 7 5 5 3 3 3 4 3 4 4 5 5 4 3 3 5 9 9 9 8 7 8 9 10 10 9 8 8 8 10 10 9 9 11 12 10 10 11 12 12 13 12 11 10 10 12 9 8 8 8 8 8 9 9 8 7 7 6 6 6 6 6 6 6 6
12 9 8 9 9 10 12 13 13 9 8 9 9 8 6 5 4 4 4 6 6 4 3 4 3 4 3 3 3 3 3 4 5 5 4 1 4 2 4 7 6 6 8 8 9 9 9 8 8 8 9 13 14 10 12 17 17 17 15 13 10 11 12 10 14 19 12 10 10 10 10 10 9 9 9 9 8 8 7 7 7 7 7 6 6
15 15 16 14 12 9 9 12 13 10 10 9 9 8 6 5 4 4 4 6 5 5 4 5 4 4 4 4 4 4 3 3 3 4 4 4 3 4 6 5 4 5 7 7 9 7 9 10 9 8 8 6 4 12 19 19 19 20 19 18 17 18 19 19 21 16 12 11 10 10 9 9 9 9 9 9 9 8 8 8 7 7 7 7 7
Wind_Direction
226 213 205 202 201 196 185 175 181 181 181 183 186 187 180 178 170 181 178 164 159 162 169 168 176 183 179 187 181 176 171 167 176 181 184 178 170 161 183 175 171 168 168 165 165 164 160 156 159 165 160 161 165 167 163 159 155 150 144 143 141 135 134 142 137 125 117 85 70 76 65 59 76 80 83 88 98 111 108 105 100 91 85 83 86
192 213 220 211 202 188 174 174 166 172 197 182 188 191 182 172 181 179 169 175 178 177 177 182 190 192 184 188 158 167 167 175 183 189 184 177 174 170 165 198 175 171 170 167 165 163 155 158 164 165 165 172 172 168 157 153 151 149 145 135 151 143 148 163 161 132 98 140 137 117 67 51 58 72 80 77 102 103 113 106 103 105 101 100 94
259 248 213 202 193 186 180 184 189 190 180 181 178 165 171 177 188 177 180 182 188 182 176 191 181 161 164 155 154 148 211 191 169 166 164 174 182 185 178 189 195 174 173 170 169 168 162 162 172 169 173 160 161 167 156 155 161 158 159 153 149 146 142 173 177 202 128 109 102 100 148 107 102 54 39 85 96 103 102 100 112 115 120 116 117
245 228 206 196 188 187 180 187 188 163 164 169 171 179 180 179 181 179 186 188 185 184 175 138 131 117 94 122 115 126 168 129 116 143 169 170 192 194 202 194 209 188 175 174 174 172 165 167 168 169 167 172 165 163 165 162 162 165 163 159 152 148 166 183 202 184 153 138 150 169 168 119 124 235 163 182 111 112 117 122 122 127 128 124 115
236 230 186 176 180 193 192 183 156 175 182 184 181 184 189 186 183 180 181 182 175 165 163 145 131 116 90 70 85 80 66 114 136 199 198 193 185 200 208 196 196 218 184 176 176 173 170 167 167 171 170 173 174 171 170 170 170 169 165 161 173 163 164 173 198 186 189 217 131 124 79 224 210 162 129 80 109 106 143 155 149 138 138 139 132
214 202 189 188 191 175 149 159 179 189 192 196 189 188 182 182 177 177 172 171 171 169 163 157 165 160 152 153 165 176 181 175 197 198 188 194 203 182 199 200 200 197 205 180 176 168 169 169 168 168 177 179 182 176 161 161 168 170 176 175 174 183 164 164 178 215 201 211 239 51 156 171 162 168 130 183 67 259 186 177 172 164 148 141 141
243 214 185 178 180 161 180 186 191 192 203 183 185 186 183 178 179 176 175 174 169 169 164 161 169 178 182 188 190 194 199 213 190 159 182 196 164 190 201 202 199 194 200 193 176 174 168 170 173 176 174 178 176 156 168 176 178 179 173 177 181 169 170 171 177 179 194 252 242 239 172 120 139 143 187 102 152 245 210 182 197 172 162 148 154
211 201 191 189 179 179 189 197 191 200 185 176 186 185 183 181 176 179 176 175 174 167 171 173 176 182 187 194 196 202 205 201 180 172 161 159 181 193 195 204 204 202 193 196 184 174 173 173 174 172 170 168 172 185 179 179 175 177 181 179 171 178 180 179 176 170 180 199 181 146 81 119 154 68 149 162 154 162 209 251 258 178 163 175 165
203 190 190 185 189 199 195 194 201 181 180 184 186 187 183 179 177 173 178 176 178 174 172 182 180 182 189 191 202 210 198 183 164 158 168 170 184 185 194 200 202 204 196 188 185 178 176 174 173 174 174 176 181 183 182 177 179 175 176 177 183 186 190 187 171 181 191 179 156 130 124 144 145 83 128 91 137 139 153 182 176 190 166 197 176
229 192 180 191 194 197 195 178 174 193 189 182 181 175 179 174 178 177 182 180 176 180 178 183 183 179 189 197 199 198 189 173 168 173 176 172 188 187 188 193 194 189 188 185 181 181 177 174 173 177 181 180 181 184 180 179 178 181 182 182 182 184 190 189 187 184 186 163 168 142 142 143 108 104 145 104 65 94 163 189 180 169 182 213 175
160 134 168 194 201 183 161 178 190 183 185 177 179 181 177 177 178 183 184 178 180 180 180 187 188 188 194 194 196 195 194 182 181 185 176 179 189 188 188 191 186 184 176 183 185 179 181 178 177 179 178 177 183 183 184 180 180 183 185 183 183 184 187 187 185 179 170 165 167 165 168 172 172 169 177 184 145 145 90 149 158 187 179 160 216
154 130 132 142 133 160 164 179 182 186 177 186 186 183 182 181 176 181 181 184 186 181 182 189 190 196 198 195 198 198 193 194 197 195 189 189 189 188 187 181 190 180 179 177 184 183 179 182 181 175 179 178 182 179 187 191 184 183 181 183 186 187 183 182 176 170 176 174 180 178 185 194 184 155 170 168 163 171 156 161 163 138 98 214 190
159 166 158 164 173 178 189 190 179 188 192 188 189 187 185 181 180 181 190 188 189 183 188 189 192 197 196 197 201 200 208 206 205 205 191 192 191 193 186 191 181 180 188 182 188 180 180 179 181 183 183 185 184 183 186 185 183 184 183 184 184 181 180 180 181 184 176 178 188 187 178 191 196 177 148 160 134 131 135 131 159 150 152 167 192
183 182 186 192 191 196 194 193 196 194 196 193 191 189 190 186 186 189 194 188 189 190 191 193 199 196 194 196 197 195 209 210 208 206 194 193 189 197 197 192 189 192 181 190 183 179 184 188 185 188 188 185 186 188 184 184 182 183 182 183 185 185 176 184 189 182 181 183 170 173 191 194 202 164 156 141 148 138 143 148 149 134 102 163 156
198 190 199 205 208 199 198 199 200 198 198 199 195 195 189 192 189 195 193 195 193 194 192 198 198 196 193 196 198 200 206 208 211 204 192 192 190 190 195 196 197 196 192 187 175 185 188 187 189 189 188 186 187 187 184 183 183 180 181 182 182 181 182 181 185 176 179 176 175 178 183 194 189 173 157 172 162 164 153 153 147 138 84 104 180
202 205 224 232 219 210 207 209 207 201 203 204 200 196 197 200 197 200 198 193 195 194 198 197 198 194 195 198 203 203 206 208 210 201 197 192 188 190 195 194 195 192 196 187 189 188 187 189 191 195 190 187 187 187 182 179 179 178 177 174 179 173 180 182 181 177 177 174 173 164 159 185 176 170 175 171 175 159 150 156 155 152 146 163 178
202 212 219 222 218 221 215 209 206 205 205 206 204 199 200 197 199 204 205 200 198 199 199 198 197 194 200 201 202 206 207 208 207 204 196 193 191 191 188 194 197 195 192 194 189 191 192 190 188 192 194 191 188 188 184 184 179 179 177 175 174 171 171 181 172 175 172 162 158 166 167 162 172 155 150 160 155 145 156 163 165 164 162 137 163
213 216 224 217 209 210 211 215 211 206 205 205 208 203 204 203 201 204 205 207 206 195 198 198 200 202 200 203 205 207 209 212 209 201 190 189 196 195 191 189 197 196 193 191 192 191 193 193 192 193 193 192 190 186 182 180 175 176 177 178 173 162 169 170 176 164 162 158 153 150 153 156 164 153 151 152 152 154 155 166 170 161 153 153 159
223 226 230 226 216 213 210 212 216 217 211 207 204 199 205 210 212 211 212 210 204 199 193 201 202 206 205 202 202 207 210 209 208 195 188 192 194 193 193 195 192 192 189 187 190 193 193 192 193 190 183 187 191 182 174 169 171 167 168 168 163 161 162 170 173 163 160 152 154 156 160 153 159 147 137 135 138 144 150 151 153 147 165 145 154
240 238 229 221 220 214 209 209 210 212 210 206 199 200 211 210 210 217 221 214 207 206 197 200 200 202 208 206 207 205 205 204 202 196 196 198 195 190 192 192 193 186 194 186 189 191 191 192 194 189 188 180 178 187 176 170 169 173 167 165 170 163 165 167 170 168 158 160 155 157 164 159 158 140 140 143 141 138 143 145 147 145 147 151 144
240 232 225 222 224 224 224 220 218 222 217 198 193 204 210 208 219 210 210 212 214 212 206 211 194 205 200 205 207 203 204 201 203 200 200 202 197 191 191 193 179 194 183 187 193 194 193 194 192 192 190 185 180 177 180 170 170 169 171 169 169 171 166 170 164 169 169 159 160 161 165 162 157 149 150 143 141 145 138 134 136 132 140 160 146
240 233 215 219 231 239 243 241 232 211 221 210 200 199 210 216 216 207 212 218 215 216 213 209 204 204 205 205 208 209 204 203 205 205 206 202 198 194 189 181 192 191 183 190 194 192 192 192 192 195 193 188 185 180 177 173 173 171 172 170 174 177 175 168 170 170 172 168 161 159 160 159 169 150 147 152 151 150 150 143 151 147 156 174 172
244 231 233 228 219 221 218 205 209 221 227 223 203 201 209 212 207 209 210 224 213 220 215 209 206 207 210 204 202 206 206 206 204 209 210 203 199 195 187 188 190 186 188 191 191 189 191 190 193 194 192 190 187 182 180 177 177 175 174 178 179 178 178 175 176 175 173 166 162 162 162 158 155 151 157 157 158 156 156 153 158 156 159 174 179
344 354 330 275 246 226 210 221 228 234 233 225 219 218 211 208 207 203 218 222 212 215 211 210 213 217 211 205 204 200 205 208 208 207 210 205 197 195 189 193 189 179 187 192 187 188 188 189 192 194 194 190 186 186 182 185 182 179 180 180 181 183 181 180 179 176 173 169 168 162 166 166 161 155 155 156 161 156 160 159 156 166 159 169 170
356 320 277 283 265 226 224 224 227 234 236 230 225 225 217 215 200 210 223 215 213 208 206 210 211 217 216 216 212 201 204 209 211 207 208 202 201 196 193 195 184 186 188 184 190 186 186 189 193 194 193 193 190 183 183 186 186 185 183 182 183 184 183 183 183 179 176 170 168 171 168 167 162 155 156 162 164 165 164 159 163 162 161 157 151
274 266 264 249 242 254 254 238 237 240 241 242 240 236 233 225 218 212 216 212 212 200 208 207 205 211 217 219 219 211 210 208 209 210 205 200 199 199 195 198 191 187 187 192 187 188 189 191 194 195 194 195 192 189 187 187 185 184 184 184 185 186 187 185 184 180 173 174 174 171 167 168 166 160 166 169 166 165 158 162 161 162 154 153 155
259 253 257 284 284 251 245 244 236 237 231 228 231 234 232 230 230 221 217 210 206 200 205 207 207 209 215 220 217 218 213 208 208 209 204 200 200 198 195 199 193 191 191 192 192 190 194 191 193 191 193 193 195 196 194 191 189 187 184 181 183 188 188 188 185 178 177 177 176 171 170 172 172 170 163 169 166 160 164 169 171 163 160 157 163
272 273 264 251 253 264 256 248 244 243 243 241 236 233 231 227 231 226 217 210 209 201 202 209 209 215 219 222 216 215 217 215 208 208 207 203 199 199 200 195 190 199 198 196 193 191 190 191 193 195 194 190 191 195 198 193 191 190 186 186 184 183 182 183 180 184 185 182 179 176 174 176 175 172 168 166 161 164 160 166 167 158 161 162 168
278 265 262 261 259 253 252 251 248 252 250 247 245 243 240 242 238 233 215 218 208 192 202 209 211 218 225 224 209 209 211 211 207 206 208 207 201 198 195 195 198 203 203 201 195 190 186 192 197 197 193 192 192 195 195 194 190 190 189 185 183 182 181 181 185 186 187 186 182 179 179 179 177 169 168 163 167 162 157 162 167 164 165 168 166
267 269 271 270 263 259 255 254 260 244 245 248 248 244 238 235 238 233 224 227 189 203 205 212 215 222 228 220 208 205 204 203 205 207 207 206 202 197 196 200 203 203 202 200 198 194 193 195 195 195 195 194 198 199 198 196 193 187 185 183 182 183 182 184 183 183 185 187 187 183 185 180 171 166 165 165 164 166 168 166 167 168 167 169 171
267 267 267 267 273 272 268 263 257 252 242 242 244 246 245 243 243 237 229 224 188 205 212 214 221 225 225 209 206 209 199 204 210 204 204 201 203 198 200 205 206 203 203 200 194 196 202 200 197 196 197 199 202 202 196 197 195 190 185 186 183 183 180 182 185 181 183 184 187 187 181 177 169 165 167 166 166 170 172 168 161 169 169 168 167
255 261 266 273 271 269 268 268 271 269 260 245 249 251 247 246 243 238 237 202 192 212 215 219 225 226 218 212 213 206 203 210 204 208 203 199 198 202 206 207 205 204 204 194 198 204 201 199 200 200 202 203 205 199 195 198 194 192 190 187 184 179 177 182 187 187 185 183 181 177 177 175 174 169 167 167 170 173 171 170 172 172 177 179 174
245 245 249 252 255 258 263 271 275 275 279 267 242 251 245 243 241 242 217 182 210 213 219 225 226 222 221 217 210 206 211 209 209 206 199 195 199 206 210 208 208 204 192 199 205 200 204 200 198 201 205 203 206 197 195 197 201 198 191 183 188 187 184 184 184 187 185 183 178 174 171 178 178 172 167 166 165 170 174 172 176 183 186 187 195
260 256 250 253 260 264 266 263 271 285 281 271 253 237 249 246 244 239 195 218 211 220 217 226 226 224 222 216 209 208 211 212 206 200 196 200 201 209 211 209 206 198 203 205 202 204 203 203 204 204 204 203 203 196 198 199 197 195 193 191 194 189 186 183 184 186 186 184 179 174 171 174 174 171 169 163 162 165 166 167 170 179 190 205 207
264 267 261 259 264 279 291 301 298 280 276 282 282 251 260 272 246 233 222 220 219 220 222 226 228 229 222 215 211 211 213 209 203 200 200 204 206 211 208 206 203 204 203 204 202 203 206 207 206 204 203 203 205 197 199 200 200 197 196 195 200 195 189 185 186 185 183 182 181 178 176 173 171 172 171 165 161 163 164 171 174 181 195 198 206
267 284 293 294 291 284 283 285 289 301 293 281 271 290 286 266 257 230 235 226 223 222 229 229 232 228 218 215 212 216 215 209 204 202 205 209 210 209 208 204 204 207 209 205 208 205 207 207 205 204 206 209 208 202 201 198 196 196 195 196 199 201 196 186 183 181 180 184 184 179 174 171 170 171 169 162 158 153 161 168 175 187 197 202 218
295 293 286 292 289 289 289 298 304 302 305 301 296 299 277 275 267 248 237 239 219 229 232 230 232 229 220 215 212 214 215 209 203 204 209 211 210 210 209 195 203 205 205 207 209 207 206 204 205 205 206 211 209 205 203 201 199 196 191 190 186 189 192 192 186 174 174 176 182 179 175 167 166 170 165 162 157 149 163 169 176 190 199 207 230
309 326 310 316 320 319 313 324 313 310 305 301 307 307 301 288 271 259 244 242 224 236 238 236 236 228 223 216 212 210 213 207 202 209 210 213 210 206 204 193 202 201 208 209 208 209 206 206 206 207 205 206 209 203 203 204 202 198 190 188 185 184 179 175 177 171 157 160 177 182 176 166 163 165 164 166 162 156 166 172 176 188 199 216 233
316 316 318 320 318 311 295 314 319 312 307 314 312 317 315 297 285 275 249 246 238 243 243 235 235 231 226 213 209 209 211 207 208 211 207 208 204 203 195 187 203 202 208 200 202 207 207 208 211 212 210 209 209 207 202 201 203 201 193 184 179 180 176 173 157 155 161 164 171 179 176 171 169 162 168 168 166 163 168 172 181 185 209 219 226
325 305 264 270 295 334 324 320 311 297 301 304 306 309 298 286 282 280 267 252 249 244 245 245 248 236 220 211 206 208 210 208 212 209 205 207 195 186 188 191 198 198 200 196 197 202 205 211 205 211 213 211 207 205 204 205 201 199 193 181 179 178 178 170 166 164 166 174 169 170 179 175 163 162 166 168 170 170 171 177 173 196 208 229 205
295 303 309 308 297 285 277 282 283 288 296 293 294 291 278 270 272 278 261 253 255 265 259 249 243 234 220 213 209 208 211 213 209 205 198 194 187 190 186 189 192 192 193 194 196 199 203 206 200 203 208 211 204 196 199 199 198 197 190 176 185 184 169 162 166 168 173 168 171 178 180 174 161 163 166 169 170 178 180 179 189 205 212 204 139
244 264 292 302 301 277 280 289 281 276 282 290 289 283 273 274 273 263 257 264 277 261 253 246 236 229 224 217 213 214 212 211 201 186 186 194 191 183 186 186 188 189 193 197 194 197 202 205 202 199 202 205 197 190 184 196 199 200 184 169 175 183 166 161 160 169 175 180 179 175 176 172 162 160 163 166 174 182 191 191 206 211 210 186 162
326 324 321 327 317 311 301 291 291 276 261 264 263 267 273 276 271 264 275 284 268 260 248 241 234 228 222 217 214 209 208 199 192 188 187 190 179 180 182 181 184 189 194 197 196 195 197 201 193 195 196 197 192 192 183 186 191 191 170 173 163 157 163 163 168 173 179 177 174 169 167 168 164 158 163 172 179 193 200 207 208 209 203 192 166
292 273 284 308 298 291 291 288 291 295 285 271 251 266 270 271 267 281 296 282 273 258 247 240 236 231 224 218 211 207 202 191 187 181 186 183 180 181 179 184 183 185 189 193 195 189 191 192 190 185 184 174 172 172 180 177 184 184 182 179 175 174 176 177 178 175 163 162 155 159 157 164 160 160 172 181 191 201 205 208 202 198 194 190 171
291 294 297 298 289 292 300 301 296 293 287 276 250 259 279 275 276 307 283 280 269 260 246 243 239 233 225 221 204 199 192 186 184 177 181 182 180 175 181 188 182 188 189 192 191 186 190 188 184 185 167 144 160 164 169 174 174 172 181 169 167 163 172 163 166 162 158 155 146 146 151 158 162 174 185 196 205 210 210 198 194 188 188 183 178
284 288 282 271 281 287 289 290 295 296 299 286 259 239 264 271 294 299 282 273 262 254 247 243 244 235 230 210 200 200 188 182 176 180 182 179 177 181 184 183 185 192 191 190 186 183 189 183 186 180 177 170 162 159 165 168 172 171 178 177 172 174 176 175 166 153 148 142 146 151 158 165 176 184 191 198 204 204 208 200 196 190 177 178 170
303 299 310 306 288 282 283 283 289 294 307 302 291 265 256 277 285 283 278 263 252 243 245 245 236 236 232 215 197 192 183 179 175 170 170 171 175 181 182 184 187 189 189 189 183 183 185 185 185 183 174 168 169 172 172 174 174 178 181 180 177 181 175 165 157 153 152 154 157 162 170 173 171 188 191 195 189 189 192 190 182 179 173 175 177
288 291 299 294 287 281 282 281 278 281 297 294 292 285 277 273 274 272 260 250 246 243 241 239 226 210 204 200 197 189 179 184 190 176 169 168 176 180 183 187 188 188 186 190 188 190 191 191 188 176 159 160 175 179 179 174 177 174 172 170 174 173 175 175 165 159 154 148 148 156 164 168 172 179 180 170 170 173 176 170 172 166 166 169 178
310 308 301 294 298 295 286 286 284 287 287 281 279 277 275 271 272 270 241 230 241 245 246 237 215 189 201 197 187 182 187 179 184 199 199 186 178 181 186 196 203 193 191 186 188 196 195 191 178 173 169 176 180 191 196 183 169 166 167 170 175 177 176 177 170 152 140 142 147 158 160 163 169 170 167 171 169 168 176 176 172 174 171 172 176
305 301 295 291 282 278 286 289 285 285 283 282 280 274 261 254 253 252 225 224 235 226 217 218 201 195 192 176 174 179 174 169 170 167 146 40 5 174 202 188 185 177 189 198 189 194 187 173 176 190 184 182 192 189 157 167 171 171 171 171 165 163 170 165 166 161 153 160 170 169 173 171 171 171 175 178 179 176 176 181 187 183 181 184 188
312 314 310 304 296 290 282 281 284 295 290 284 280 270 265 262 249 237 217 226 213 214 214 209 197 201 192 181 171 164 164 153 160 157 152 145 111 41 65 102 135 135 145 158 182 169 159 176 173 175 188 189 123 149 168 175 175 180 179 177 175 177 175 172 167 158 166 173 172 176 177 175 177 177 181 185 178 178 183 182 186 188 186 191 196